This is the latest recevied weather packets stored in our database for station/object YN1GRE-3. If no packets are shown the sender has not sent any weather packets the latest 10 day(s).
| Time | Temp. | Humidity | Pressure | Rain* | Wind** | Luminosity | Snow |
|---|---|---|---|---|---|---|---|
| 1777978281 | 23.89° C | 84% | 1011 hPa | 0 mm | - | - | - |
| 1777972486 | 22.78° C | 80% | 1011 hPa | 0 mm | - | - | - |
| 1777959488 | 23.33° C | 79% | 1012 hPa | 0 mm | - | - | - |
| 1777953826 | 22.22° C | 79% | 1013 hPa | 0 mm | - | - | - |
| 1777952926 | 22.22° C | 79% | 1013 hPa | 0 mm | - | - | - |
| 1777941727 | 26.11° C | 84% | 1011 hPa | 0 mm | - | - | - |
| 1777931434 | 26.67° C | 74% | 1009 hPa | 0 mm | - | - | - |
| 1777929633 | 27.78° C | 74% | 1009 hPa | 0 mm | - | - | - |
| 1777925901 | 29.44° C | 74% | 1010 hPa | 0 mm | - | - | - |
| 1777919466 | 28.33° C | 74% | 1012 hPa | 0 mm | - | - | - |
| 1777913032 | 31.67° C | 74% | 1012 hPa | 0 mm | - | - | - |
| 1777903125 | 27.78° C | 94% | 1012 hPa | 0 mm | - | - | - |
| 1777899523 | 26.67° C | 94% | 1012 hPa | 0 mm | - | - | - |
| 1777897722 | 24.44° C | 83% | 1012 hPa | 0 mm | - | - | - |
| 1777895020 | 26.11° C | 83% | 1012 hPa | 0 mm | - | - | - |
| 1777883049 | 21.67° C | 84% | 1011 hPa | 0 mm | - | - | - |
| 1777881246 | 21.67° C | 84% | 1011 hPa | 0 mm | - | - | - |
| 1777853584 | 26.11° C | 79% | 1010 hPa | 0 mm | - | - | - |
| 1777851653 | 26.67° C | 79% | 1010 hPa | 0 mm | - | - | - |
| 1777850752 | 27.22° C | 79% | 1009 hPa | 0 mm | - | - | - |
| 1777838784 | 28.33° C | 63% | 1011 hPa | 0 mm | - | - | - |
| 1777835181 | 27.78° C | 70% | 1012 hPa | 0 mm | - | - | - |
| 1777833380 | 28.89° C | 70% | 1012 hPa | 0 mm | - | - | - |
| 1777831579 | 30° C | 70% | 1012 hPa | 0 mm | - | - | - |
| 1777826176 | 28.33° C | 74% | 1013 hPa | 0 mm | - | - | - |
* Rain latest hour (hover to see other rain measurements)
** Current wind speed in m/s (hover to see current wind gust speed)